Terminal Aerodrome Forecast
Issued by NWS

Home | Current Version | Previous Version | Text Only | Print | Product List | Glossary On
Versions: 1 2 3 4 5 6 7 8 9 10 11 12 13 14
000
FTUS43 KSGF 272300
TAFJLN
TAF
KJLN 272320Z 2800/2824 35004KT P6SM BKN250
     FM280200 VRB04KT P6SM SKC
     FM281500 35010KT P6SM SKC=

USA.gov is the U.S. government's official web portal to all federal, state and local government web resources and services.